Regional Weather Roundup
Issued by NWS

Home | Current Version | Previous Version | Graphics & Text | Print | Product List | Glossary On
Versions: 1 2 3 4 5 6 7 8 9 10 11 12 13 14 15 16 17 18 19 20 21 22 23 24 25 26 27 28 29 30 31 32 33 34 35 36 37 38 39 40 41 42 43 44 45 46 47 48 49 50
477
ASUS43 KBIS 260010
RWRND

NORTH DAKOTA REGIONAL WEATHER ROUNDUP
NATIONAL WEATHER SERVICE BISMARCK ND
700 PM CDT TUE JUL 25 2017

NOTE: "FAIR" INDICATES FEW OR NO CLOUDS BELOW 12,000 FEET WITH NO
SIGNIFICANT WEATHER AND/OR OBSTRUCTIONS TO VISIBILITY.


NDZ001>003-009>011-017-260100-
NORTHWEST NORTH DAKOTA

CITY           SKY/WX    TMP DP  RH WIND       PRES   REMARKS
WILLISTON      SUNNY     88  43  20 NW13      30.01R
6HR MIN TEMP:  82; 6HR MAX TEMP:  89;

MINOT          SUNNY     84  51  31 NW20G26   29.96S
MINOT AFB      SUNNY     82  52  34 NW20      29.95S
$$

NDZ018>021-031>035-040>046-260100-
SOUTHWEST NORTH DAKOTA

CITY           SKY/WX    TMP DP  RH WIND       PRES   REMARKS
BISMARCK       CLOUDY    86  49  27 NE7       29.98S
6HR MIN TEMP:  81; 6HR MAX TEMP:  89;

DICKINSON      PTSUNNY   84  46  26 N7        30.03S
GARRISON         N/A     84  48  28 NW13G25   29.98S
6HR MIN TEMP:  80; 6HR MAX TEMP:  86;

HETTINGER ARPT CLOUDY    81  46  29 SE7       30.06R
$$

NDZ004>008-012>016-024-026-027-054-260100-
NORTHEAST NORTH DAKOTA

CITY           SKY/WX    TMP DP  RH WIND       PRES   REMARKS
GRAND FORKS    MOSUNNY   83  60  45 W12       29.88S
GRND FRKS AFB  SUNNY     80  57  45 NW14      29.90S
DEVILS LAKE    SUNNY     80  55  42 NW16      29.95S
$$

NDZ022-023-025-028>030-036>039-047>053-260100-
SOUTHEAST NORTH DAKOTA

CITY           SKY/WX    TMP DP  RH WIND       PRES   REMARKS
FARGO          SUNNY     81  70  69 W8        29.89F
6HR MIN TEMP:  76; 6HR MAX TEMP:  81;

JAMESTOWN      MOSUNNY   82  54  37 NW7       29.94F
$$





USA.gov is the U.S. government's official web portal to all federal, state and local government web resources and services.